Location: Taupo
(38.6830°S, 176.0830°E)
Time: 23:23:41
(UTC+12:00)

ISS - Visible Passes

Search period start: 14 May 2021 00:00
Search period end: 24 May 2021 00:00
Orbit: 417 x 422 km, 51.6° (Epoch: 14 May)

Date Brightness Start Highest point End Pass type
(mag) Time Alt. Az. Time Alt. Az. Time Alt. Az.
19 May -0.6 06:26:43 10° N 06:29:05 18° NE 06:31:28 10° E visible
21 May -2.9 06:27:21 10° NW 06:30:42 56° NE 06:34:05 10° ESE visible
22 May -1.8 05:40:16 10° NNW 05:43:19 31° NE 05:46:24 10° ESE visible
23 May -1.1 04:55:41 18° NE 04:56:00 18° NE 04:58:23 10° E visible
23 May -3.4 06:29:13 10° WNW 06:32:32 47° SW 06:35:54 10° SE visible
